TimeEST,TemperatureF,Dew PointF,Humidity,Sea Level PressureIn,VisibilityMPH,Wind Direction,Wind SpeedMPH,Gust SpeedMPH,PrecipitationIn,Events,Conditions,WindDirDegrees,DateUTC
12:03 AM,51.8,50.0,94,29.33,1.0,Calm,Calm,-,0.01,Rain,Light Rain,0,2013-01-31 05:03:00
12:12 AM,51.8,50.0,94,29.32,2.5,Calm,Calm,-,0.01,Rain,Light Rain,0,2013-01-31 05:12:00
12:24 AM,51.8,50.0,94,29.30,1.0,Calm,Calm,-,0.02,Rain,Light Rain,0,2013-01-31 05:24:00
12:32 AM,50.0,48.2,94,29.30,0.5,Calm,Calm,-,0.02,Fog,Fog,0,2013-01-31 05:32:00
12:53 AM,50.0,48.9,96,29.26,1.0,Calm,Calm,-,0.06,Rain,Light Rain,0,2013-01-31 05:53:00
1:04 AM,51.8,48.2,88,29.24,3.0,ESE,4.6,-,0.01,Rain,Light Rain,120,2013-01-31 06:04:00
1:24 AM,51.8,50.0,94,29.21,3.0,Calm,Calm,-,0.02,Rain,Light Rain,0,2013-01-31 06:24:00
1:32 AM,51.8,50.0,94,29.20,2.5,Calm,Calm,-,0.03,Rain,Light Rain,0,2013-01-31 06:32:00
1:40 AM,53.6,51.8,94,29.18,6.0,Variable,3.5,-,0.04,Rain,Light Rain,0,2013-01-31 06:40:00
1:53 AM,55.0,53.1,93,29.16,10.0,South,6.9,-,0.05,Rain,Light Rain,190,2013-01-31 06:53:00
2:53 AM,62.1,55.9,80,29.04,10.0,South,16.1,29.9,0.02,Rain,Light Rain,170,2013-01-31 07:53:00
3:42 AM,59.0,55.4,88,29.02,2.5,WSW,13.8,21.9,0.14,Rain,Heavy Rain,240,2013-01-31 08:42:00
3:46 AM,59.0,55.4,88,29.02,1.8,SW,9.2,21.9,0.21,Rain,Heavy Rain,220,2013-01-31 08:46:00
3:53 AM,59.0,55.0,87,29.00,1.8,Variable,6.9,20.7,0.30,Rain,Heavy Rain,0,2013-01-31 08:53:00
4:21 AM,57.2,55.4,94,29.05,3.0,SSW,5.8,-,0.38,Rain,Rain,210,2013-01-31 09:21:00
4:48 AM,57.2,53.6,88,29.07,6.0,SSW,9.2,-,0.42,Rain,Light Rain,210,2013-01-31 09:48:00
4:53 AM,57.0,54.0,89,29.05,6.0,SSW,8.1,-,0.43,Rain,Rain,200,2013-01-31 09:53:00
5:53 AM,59.0,52.0,78,28.98,10.0,SSW,6.9,-,0.05,,Mostly Cloudy,200,2013-01-31 10:53:00
6:53 AM,55.0,46.9,74,29.04,5.0,WSW,25.3,32.2,0.03,Rain,Light Rain,240,2013-01-31 11:53:00
7:00 AM,53.6,44.6,72,29.06,10.0,WSW,17.3,32.2,0.00,,Overcast,240,2013-01-31 12:00:00
7:53 AM,48.9,35.1,59,29.13,10.0,West,21.9,29.9,0.01,Rain,Light Rain,260,2013-01-31 12:53:00
8:53 AM,46.9,32.0,56,29.20,10.0,WSW,26.5,35.7,0.00,,Mostly Cloudy,250,2013-01-31 13:53:00
9:53 AM,46.9,26.1,44,29.26,10.0,WSW,18.4,32.2,N/A,,Scattered Clouds,250,2013-01-31 14:53:00
10:53 AM,43.0,25.0,49,29.31,10.0,WNW,17.3,28.8,N/A,,Overcast,290,2013-01-31 15:53:00
11:53 AM,44.1,19.0,37,29.34,10.0,West,20.7,35.7,N/A,,Scattered Clouds,280,2013-01-31 16:53:00
12:53 PM,45.0,19.9,37,29.36,10.0,WSW,17.3,31.1,N/A,,Scattered Clouds,240,2013-01-31 17:53:00
1:53 PM,44.1,16.0,32,29.38,10.0,West,21.9,27.6,N/A,,Partly Cloudy,260,2013-01-31 18:53:00
2:53 PM,43.0,17.1,35,29.42,10.0,WSW,19.6,33.4,N/A,,Mostly Cloudy,250,2013-01-31 19:53:00
3:53 PM,42.1,10.9,28,29.45,10.0,West,24.2,35.7,N/A,,Mostly Cloudy,270,2013-01-31 20:53:00
4:53 PM,37.0,18.0,46,29.52,10.0,WSW,23.0,33.4,N/A,,Scattered Clouds,250,2013-01-31 21:53:00
5:53 PM,34.0,19.9,56,29.57,10.0,WSW,16.1,27.6,N/A,,Mostly Cloudy,250,2013-01-31 22:53:00
7:53 PM,33.1,15.1,48,29.64,10.0,WSW,11.5,-,N/A,,Scattered Clouds,250,2013-02-01 00:53:00
8:53 PM,32.0,10.9,42,29.66,10.0,WSW,17.3,23.0,N/A,,Partly Cloudy,240,2013-02-01 01:53:00
9:53 PM,30.9,15.1,52,29.68,10.0,West,12.7,20.7,N/A,,Scattered Clouds,260,2013-02-01 02:53:00
10:53 PM,30.0,12.0,47,29.69,10.0,WSW,16.1,27.6,0.00,,Scattered Clouds,250,2013-02-01 03:53:00
11:53 PM,28.9,7.0,40,29.71,10.0,WSW,11.5,20.7,N/A,,Partly Cloudy,250,2013-02-01 04:53:00